Estación de Casa Rosada

Ultimos registro cada 15 minutos 34
Estación Fecha / Hora Temperatura Humedad Lluvia Velocidad Dirección Radiación Presion
34 Casa Rosada 07-05-2026 08:15 8,3 66 0 0,4 177 21 1017,3
33 Casa Rosada 07-05-2026 08:00 8,9 65 0 0,4 177 18 1017,2
32 Casa Rosada 07-05-2026 07:45 8,6 65 0 0,9 160 14 1017,4
31 Casa Rosada 07-05-2026 07:30 8,6 66 0 1,3 172 9 1017,4
30 Casa Rosada 07-05-2026 07:15 8,1 67 0 2,2 167 5 1017,2
29 Casa Rosada 07-05-2026 07:00 6,9 72 0 0,9 181 0 1017
28 Casa Rosada 07-05-2026 06:45 6,8 71 0 0,9 156 0 1016,7
27 Casa Rosada 07-05-2026 06:30 6,8 70 0 0,9 172 0 1016,3
26 Casa Rosada 07-05-2026 06:15 7,3 69 0 0,4 161 0 1016,3
25 Casa Rosada 07-05-2026 06:00 7,3 70 0 0,4 177 0 1016,5
24 Casa Rosada 07-05-2026 05:45 7,3 70 0 1,3 159 0 1016,4
23 Casa Rosada 07-05-2026 05:30 7,2 70 0 0,4 162 0 1016,4
22 Casa Rosada 07-05-2026 05:15 7,4 68 0 0,9 167 0 1016,4
21 Casa Rosada 07-05-2026 05:00 7,7 69 0 0,4 161 0 1016,3
20 Casa Rosada 07-05-2026 04:45 7,8 70 0 0,4 177 0 1016,1
19 Casa Rosada 07-05-2026 04:30 6,7 70 0 0,4 167 0 1016,2
18 Casa Rosada 07-05-2026 04:15 7,1 70 0 0,9 177 0 1016
17 Casa Rosada 07-05-2026 04:00 6,8 71 0 0 163 0 1015,9
16 Casa Rosada 07-05-2026 03:45 6,8 71 0 0,4 187 0 1015,6
15 Casa Rosada 07-05-2026 03:30 6,9 71 0 0,9 163 0 1015,7
14 Casa Rosada 07-05-2026 03:15 7 71 0 0,4 181 0 1015,6
13 Casa Rosada 07-05-2026 03:00 7,8 67 0 0 167 0 1015,6
12 Casa Rosada 07-05-2026 02:45 8,6 66 0 0 167 0 1015,6
11 Casa Rosada 07-05-2026 02:30 9,5 64 0 0 167 0 1015,7
10 Casa Rosada 07-05-2026 02:15 9,1 67 0 0,4 57 0 1015,5
9 Casa Rosada 07-05-2026 02:00 9,7 64 0 0,4 358 0 1015,5
8 Casa Rosada 07-05-2026 01:45 10,2 63 0 0 285 0 1015,5
7 Casa Rosada 07-05-2026 01:30 10,6 62 0 0 172 0 1015,3
6 Casa Rosada 07-05-2026 01:15 10,4 61 0 0 160 0 1015,6
5 Casa Rosada 07-05-2026 01:00 10,4 63 0 0,9 198 0 1015,5
4 Casa Rosada 07-05-2026 00:45 9,9 62 0 0,9 152 0 1015,5
3 Casa Rosada 07-05-2026 00:30 10,4 65 0 0,4 162 0 1015,4
2 Casa Rosada 07-05-2026 00:15 10,3 64 0 0,9 184 0 1015,5
1 Casa Rosada 07-05-2026 00:00 11,1 64 0 0,9 181 0 1015,6